Regional Weather Roundup
Issued by NWS

Home | Current Version | Previous Version | Text Only | Print | Product List | Glossary On
Versions: 1 2 3 4 5 6 7 8 9 10 11 12 13 14 15 16 17 18 19 20 21 22 23 24 25 26 27 28 29 30 31 32 33 34 35 36 37 38 39 40 41 42 43 44 45 46 47 48 49 50
000
ASUS43 KDMX 021907
RWRIA

WEATHER ROUNDUP FOR IOWA
NATIONAL WEATHER SERVICE DES MOINES IA
100 PM CST MON MAR 02 2015

NOTE: "FAIR" INDICATES FEW OR NO CLOUDS BELOW 12,000 FEET WITH NO
SIGNIFICANT WEATHER AND/OR OBSTRUCTIONS TO VISIBILITY.

* - THESE STATIONS ARE NOT NWS STATIONS...THUS NOT UNDER NWS
QUALITY CONTROL.  THEY ALSO DO NOT REPORT WEATHER SUCH
AS PRECIPITATION OR FOG.

IAZ001>003-012>014-020>022-031>034-043>046-022000-
   NORTHWEST IOWA

CITY           SKY/WX    TMP DP  RH WIND       PRES   REMARKS
CARROLL *      CLOUDY    30  18  59 SE10      30.37F WCI  21
CHEROKEE *     CLOUDY    28  19  69 SE13      30.34F WCI  18
DENISON *      CLOUDY    30  19  64 SE9       30.33F WCI  22
LE MARS *      CLOUDY    30  18  59 SE12      30.32F WCI  21
ORANGE CITY *  PTSUNNY   28  18  64 SE9       30.30F WCI  20
SHELDON *      CLOUDY    27  16  63 SE18      30.30F WCI  13
STORM LAKE *   CLOUDY    27  18  69 SE14      30.35F WCI  15
$$

IAZ055>058-069>071-079>083-090>094-022000-
   SOUTHWEST IOWA

CITY           SKY/WX    TMP DP  RH WIND       PRES   REMARKS
ATLANTIC *     CLOUDY    32  19  59 SE7       30.36F WCI  26
AUDUBON *      CLOUDY    30  19  64 SE7       30.37F WCI  23
CLARINDA *     SUNNY     39  18  41 S13G18    30.38F WCI  32
COUNCIL BLFS * PTSUNNY   36  23  60 S13       30.33F WCI  27
CRESTON *      CLOUDY    34  18  51 SE12      30.37F WCI  25
HARLAN  *      CLOUDY    32  23  69 SE10      30.39F WCI  24
RED OAK *      CLOUDY    39  19  45 S12       30.36F WCI  32
SHENANDOAH *   MOSUNNY   41  19  42 S17       30.36F
$$

IAZ047>049-059>061-072>074-084-022000-
   CENTRAL IOWA

CITY           SKY/WX    TMP DP  RH WIND       PRES   REMARKS
ANKENY *       CLOUDY    28  16  59 SE6G12    30.42F WCI  22
CHARITON *     CLOUDY    30  18  59 E7        30.41F WCI  23
GRINNELL*      CLOUDY    25  14  63 E3        30.44F
KNOXVILLE *    CLOUDY    30  14  51 SE6       30.41F WCI  24
PELLA *        MOSUNNY   30  19  64 SE5       30.45F WCI  25
PERRY *          N/A     30  19  64 SE7       30.39F WCI  23
$$

IAZ004>006-015-016-023>025-035-036-022000-
   NORTH CENTRAL IOWA

CITY           SKY/WX    TMP DP  RH WIND       PRES   REMARKS
ALGONA *       PTSUNNY   23  16  74 S10       30.39F WCI  12
CLARION *      PTSUNNY   25  19  80 SE10      30.41F WCI  15
FOREST CITY *  SUNNY     23  10  58 S7        30.40F WCI  15
IOWA FALLS *   CLOUDY    25  12  58 SE6       30.42F WCI  18
$$

IAZ007>011-017>019-026>030-037>042-050>054-066-022000-
   NORTHEAST IOWA

CITY           SKY/WX    TMP DP  RH WIND       PRES   REMARKS
CHARLES CITY * MOSUNNY   19  10  68 SE5       30.43F WCI  13
DECORAH *      SUNNY     21   9  58 VRB6      30.42F WCI  14
MONTICELLO *   SUNNY     23  14  68 SW6       30.46F WCI  16
OELWEIN *      SUNNY     19  12  73 CALM      30.44F
$$

IAZ064-065-067-068-078-022000-
   EAST CENTRAL IOWA

CITY           SKY/WX    TMP DP  RH WIND       PRES   REMARKS
MT. PLEASANT * PTSUNNY   27  14  59 NE5       30.47F WCI  21
MUSCATINE *    SUNNY     28  14  54 CALM      30.48F
$$

IAZ062-063-075>077-085>089-095>099-022000-
   SOUTHEAST IOWA

CITY           SKY/WX    TMP DP  RH WIND       PRES   REMARKS
FAIRFIELD *    CLOUDY    27  10  50 SE5       30.46F WCI  21
FORT MADISON * MOSUNNY   30  16  55 E3        30.47F
KEOKUK *       CLOUDY    28  16  59 E6        30.47F WCI  22
OSKALOOSA *    CLOUDY    30  14  51 S5        30.44F WCI  25
CENTERVILLE *  SUNNY     32  18  55 E7        30.43F WCI  26
WASHINGTON *   CLOUDY    27  18  69 NE5       30.46F WCI  21
$$

ABBREVIATIONS USED IN REMARKS
   TC - TEMPERATURES IN CELSIUS
  WCI - WIND CHILL INDEX
   HX - HEAT INDEX
  VSB - VISIBILITY
$$



USA.gov is the U.S. government's official web portal to all federal, state and local government web resources and services.